Retour au catalogue

SL-24 R/B

ActifPO
NORAD 40541·ROCKET BODY·🇷🇺 Russia

Lancé Mar 25, 2015 depuis Dombarovsky

Loading…

Prochains Passages (prochaines 24 heures)

TLE

FraisSource: Space-Track

Époque: Sep 14, 2026, 09:00 UTC

1 40541U 15014C   26257.37563438  .00000105  00000-0  35731-4 0  9995
2 40541  97.3539  52.0042 0609759 356.9912   2.7644 13.77878173576076

Suivez SL-24 R/B en temps réel avec AllMySat

Download on the App Store